Theta_e
356 352 356 358 360 362 360 360 360 360 360 360 360 360 360 359 359 359 359 359 358 355 355 355 355 356 356 357 358 359 360 360 360 359 358 355 354 353 353 353 353 352 351 351 349 345 343 341 340 341 341 338 334 331 327 325 328 331 332 330 328 329 329 334 346 351 352 352 351 351 350 349 349 350 351 349 348 349 349 348 347 348 349 349 349
361 360 358 359 361 360 360 360 360 361 361 361 361 360 359 358 357 358 358 358 357 356 355 356 356 357 358 359 359 360 360 359 359 359 357 355 354 353 353 353 352 352 350 348 346 342 341 341 341 342 342 338 332 329 327 325 326 329 330 328 327 327 326 328 335 345 349 349 350 352 352 350 348 348 349 349 348 348 348 348 347 347 348 348 348
370 366 358 357 359 359 359 360 360 360 361 361 361 359 358 357 357 357 358 358 358 357 357 357 356 357 359 360 360 360 360 358 357 358 356 354 354 354 354 353 352 351 349 346 343 341 342 342 342 341 339 336 330 327 326 324 325 328 328 328 326 325 326 325 327 332 336 342 347 353 355 354 353 349 347 346 348 349 348 348 348 347 346 345 346
370 366 360 355 355 357 358 359 358 358 359 359 359 359 358 358 357 357 358 358 359 359 359 358 357 357 358 359 358 358 358 357 356 356 355 354 354 354 354 353 352 350 348 346 342 342 344 340 337 335 334 333 329 325 327 326 325 327 327 327 326 326 326 324 325 326 326 331 338 347 351 352 352 348 343 346 348 349 350 349 349 348 345 344 345
370 368 366 358 354 357 358 358 357 356 357 357 357 359 358 357 358 358 359 359 358 360 361 359 359 359 358 357 356 356 356 356 355 355 354 355 355 354 353 353 351 350 348 344 342 344 344 338 332 332 332 330 328 326 328 329 327 327 326 327 328 328 327 324 324 325 324 325 327 334 340 344 350 346 341 344 345 348 351 349 348 348 345 344 346
368 370 369 363 357 359 359 357 357 355 356 357 356 358 358 357 358 358 359 359 358 359 360 361 359 359 359 358 356 355 355 354 353 354 354 355 354 353 353 353 351 350 346 343 345 345 341 337 333 333 332 328 327 327 329 330 330 327 325 327 329 329 327 325 324 325 325 323 323 326 326 330 339 338 336 342 344 347 351 350 349 348 346 345 346
368 368 366 364 360 360 359 357 357 356 357 358 358 358 359 358 358 358 358 358 359 358 359 360 358 358 359 358 356 355 355 354 353 353 354 354 353 353 353 352 351 349 345 345 347 342 337 338 335 333 332 330 328 329 330 330 330 329 326 327 330 330 328 326 325 325 325 324 324 324 323 324 327 327 332 339 342 344 345 346 347 345 346 346 345
369 368 368 365 361 359 358 357 356 357 359 360 359 359 360 359 358 359 358 358 359 358 358 359 358 358 359 357 355 355 354 353 354 354 355 354 352 353 352 352 351 347 345 347 347 341 337 338 336 333 333 333 332 331 332 332 331 331 330 328 329 330 330 327 325 324 325 326 325 323 322 323 324 325 327 331 338 342 338 337 333 330 339 346 345
369 370 369 363 358 357 356 356 355 357 360 359 359 359 360 360 358 358 358 357 358 357 358 359 358 358 358 356 355 356 354 353 355 355 354 353 352 352 352 352 350 346 346 347 344 341 339 337 335 335 336 336 334 334 334 333 331 332 332 330 328 329 330 327 324 324 326 326 326 325 323 323 324 325 323 325 331 334 333 334 329 324 333 342 346
369 369 366 359 356 356 356 356 355 355 357 357 358 359 359 359 358 358 358 359 359 358 358 359 358 358 358 356 355 354 354 354 355 354 353 354 353 353 352 351 348 345 346 347 343 341 340 337 335 336 337 336 334 334 335 333 332 331 330 331 328 327 329 327 324 325 326 326 326 326 324 323 323 324 324 322 323 325 327 331 328 326 329 334 343
370 369 363 357 356 357 356 356 354 354 355 356 358 360 360 359 359 359 359 359 359 358 359 359 358 358 358 357 355 354 355 355 355 354 354 354 353 353 352 351 349 346 347 347 344 342 340 336 335 336 337 335 332 331 331 331 333 331 330 330 326 323 328 328 324 324 325 326 327 326 324 323 322 323 323 320 322 324 326 329 326 324 325 326 335
371 372 367 361 357 357 357 355 354 355 355 356 359 361 361 360 360 360 359 359 359 359 359 358 357 358 359 359 356 355 355 355 354 354 354 355 354 353 352 352 351 348 349 349 345 342 340 336 335 336 336 333 331 330 329 329 332 332 329 327 323 322 328 329 325 325 325 325 327 327 325 324 324 324 323 321 321 321 324 329 327 324 325 324 327
370 373 371 370 364 357 356 356 355 356 356 357 359 360 361 361 359 359 359 359 359 359 359 358 358 358 357 358 357 356 355 354 354 354 354 355 353 353 352 352 351 349 349 349 344 342 341 337 335 336 336 333 332 332 329 327 329 330 327 323 323 325 328 327 326 325 325 324 326 327 327 325 324 325 326 325 324 323 324 328 327 324 326 326 325
370 372 374 375 364 355 355 357 357 356 356 358 360 360 360 360 359 359 359 359 358 359 357 356 355 352 351 354 355 356 356 354 355 356 356 355 353 352 352 352 350 349 349 348 345 343 341 339 337 336 335 333 333 333 329 326 326 327 324 321 324 326 326 327 327 327 327 325 324 326 328 326 326 328 327 325 326 326 325 326 327 327 326 325 326
367 370 375 369 357 354 356 357 357 356 357 360 361 360 360 360 360 359 359 358 358 357 355 353 351 349 351 353 353 354 355 355 355 355 355 355 355 353 352 350 349 348 348 346 346 344 341 340 339 338 336 334 335 333 328 325 325 325 323 322 324 325 324 326 328 327 328 326 324 326 329 328 328 329 327 326 326 325 326 325 327 329 329 334 338
364 367 373 366 355 355 357 356 357 357 357 359 359 359 360 360 358 356 356 357 357 356 354 352 350 350 352 353 351 351 352 353 352 351 352 352 354 353 349 348 348 346 345 343 344 343 341 340 338 337 335 335 334 330 325 326 326 326 326 326 326 326 326 327 328 328 327 326 326 327 329 328 328 328 326 326 325 324 326 325 326 328 327 335 346
365 368 372 365 357 356 356 355 357 358 357 358 358 359 360 359 355 354 355 357 358 357 354 352 351 350 351 351 350 350 351 351 350 349 350 349 350 350 347 347 346 344 343 341 341 342 340 337 336 335 334 333 332 327 325 327 326 326 327 327 326 328 328 328 329 329 327 326 327 328 329 328 328 328 326 325 324 324 325 325 326 327 325 329 338
365 369 370 364 357 356 355 354 355 357 357 357 358 359 360 358 355 355 356 359 359 357 354 352 350 349 349 349 349 349 349 349 348 348 348 348 348 348 346 346 345 344 344 342 341 341 338 335 335 333 332 331 331 327 325 327 326 325 325 324 325 326 326 328 328 329 328 326 327 328 329 329 328 328 326 324 324 324 325 325 326 326 326 328 332
366 368 371 366 359 357 355 353 354 356 356 357 357 358 359 357 357 356 357 359 358 356 354 351 349 348 348 348 349 349 348 348 348 347 347 347 346 346 346 345 344 344 344 342 342 339 336 335 334 332 330 330 329 326 323 326 327 325 324 324 325 324 323 325 326 327 327 326 327 327 327 327 327 327 326 325 325 325 325 326 326 325 326 326 326
367 367 373 370 359 356 356 352 353 355 354 355 355 357 358 357 357 357 356 356 354 353 353 350 348 349 348 348 349 349 348 348 348 346 347 346 345 345 345 345 345 345 342 340 340 337 335 335 333 331 331 330 329 326 324 326 326 324 323 323 324 324 324 325 325 324 324 325 326 326 326 325 325 325 326 326 326 326 326 326 325 325 326 326 325
366 362 367 366 355 354 355 351 352 354 354 354 354 356 357 356 356 356 353 353 353 352 351 350 348 348 349 349 348 347 346 346 346 346 346 345 345 346 345 346 347 344 340 338 337 336 335 334 332 332 332 330 328 327 326 326 325 323 321 322 324 326 326 326 325 324 325 326 327 326 326 326 325 325 326 327 327 327 327 327 327 326 326 327 326
358 356 357 357 351 350 351 350 351 353 353 352 353 355 356 356 356 355 353 352 352 351 350 350 349 348 349 349 347 347 346 345 345 345 345 345 345 346 346 347 346 342 339 337 336 336 334 334 333 332 331 326 324 326 327 325 325 324 322 324 326 327 327 325 325 326 327 327 327 326 326 326 326 326 327 327 327 327 327 327 327 327 327 327 327
353 353 353 351 349 349 350 351 350 350 351 352 352 353 354 355 355 354 353 352 352 351 350 350 349 348 349 348 347 347 346 344 344 344 344 344 345 346 345 344 342 340 339 337 336 335 334 334 334 332 329 324 319 321 326 326 324 324 325 327 327 326 326 325 325 327 327 327 327 327 327 327 327 328 327 326 326 326 327 327 327 327 327 327 327
359 362 360 354 352 352 350 349 349 349 350 350 350 351 353 355 354 353 353 353 352 352 350 350 349 348 349 348 347 347 345 344 344 344 344 344 345 345 344 342 341 340 339 338 336 335 335 334 332 330 327 320 313 313 319 324 325 325 326 327 327 326 326 325 325 327 328 328 328 328 328 328 328 328 327 327 327 326 326 327 327 327 327 326 326
368 372 374 368 362 358 353 350 350 349 350 351 350 351 353 353 353 352 353 353 353 352 350 349 349 348 349 348 348 347 345 344 345 345 344 344 344 345 345 344 342 341 339 338 336 335 334 332 330 328 322 314 309 308 313 320 325 326 326 327 327 326 326 325 326 327 328 328 328 328 328 328 328 328 327 327 327 326 326 326 327 327 327 326 326
371 375 377 374 367 359 355 354 352 351 352 353 352 353 353 353 353 353 353 353 353 352 350 349 349 349 349 348 347 347 346 345 345 346 345 345 344 345 345 344 342 339 337 336 335 333 332 330 328 324 315 309 307 308 313 321 326 327 328 328 327 326 326 326 327 327 328 328 329 329 328 328 328 327 327 327 327 326 326 326 326 326 327 327 326
374 376 373 371 369 362 356 356 354 353 355 355 354 354 354 354 353 353 352 351 350 350 349 349 349 349 349 349 347 347 347 346 346 347 347 346 346 345 346 345 341 337 335 334 333 331 330 330 326 321 315 310 307 308 315 323 327 328 328 328 326 325 326 327 328 328 329 329 329 329 329 328 328 327 326 326 326 326 326 326 326 327 327 327 326
373 373 373 371 371 366 359 356 355 355 357 357 356 355 355 354 354 353 352 352 351 351 350 351 350 349 349 349 347 347 348 349 348 348 349 348 347 345 345 344 341 337 334 333 333 331 330 328 324 320 319 317 311 310 316 323 327 327 327 327 326 325 327 328 328 327 327 329 330 330 330 329 328 327 327 326 325 325 326 326 327 327 327 327 327
371 373 375 372 371 368 361 356 357 358 360 359 357 357 357 357 356 355 354 354 353 353 352 351 351 350 349 349 348 348 350 350 349 349 350 349 347 345 343 343 341 336 334 333 332 331 329 327 323 321 323 323 316 314 317 323 327 327 325 326 326 326 327 328 327 327 327 327 328 329 329 329 328 326 325 325 324 325 326 327 328 328 328 327 327
368 371 374 373 373 369 359 356 358 358 360 361 358 358 359 358 357 357 355 354 353 353 352 351 350 351 350 350 349 349 351 351 349 348 349 348 346 343 339 339 338 335 333 332 331 330 327 325 324 324 325 325 320 317 319 323 327 326 324 326 326 326 327 327 326 327 327 327 326 326 327 327 326 324 322 320 321 324 327 328 328 329 328 327 327
364 367 371 374 376 366 356 357 359 358 360 361 359 359 358 357 357 356 356 355 353 353 352 350 350 350 350 350 350 350 351 351 350 348 348 347 346 344 341 338 337 334 333 332 330 329 327 326 327 327 326 325 321 317 318 322 326 325 324 327 326 325 326 326 325 326 326 326 326 325 326 326 324 321 319 318 319 322 326 327 328 329 328 327 327
368 369 370 374 376 366 357 358 359 359 360 359 359 359 357 357 358 357 357 356 354 353 351 350 351 351 350 350 349 350 350 350 350 348 347 348 347 344 343 341 337 334 332 331 330 329 328 327 328 328 327 326 324 320 317 318 322 324 325 327 327 325 326 326 325 325 326 326 325 325 326 325 322 319 319 319 320 322 324 326 326 327 327 327 327
372 371 371 370 369 364 359 359 360 359 360 359 359 359 358 358 358 357 357 356 353 352 351 351 352 350 350 350 348 348 350 350 350 349 348 348 347 345 344 342 340 337 332 330 330 329 328 329 329 329 327 327 328 324 318 314 315 320 325 327 326 326 326 326 326 326 326 325 325 325 325 324 320 319 319 321 322 323 322 322 324 325 324 325 326
371 371 371 365 361 361 360 361 361 359 359 359 359 359 358 358 357 357 357 356 353 352 351 352 352 350 350 350 347 346 348 349 350 349 348 348 347 346 344 343 344 341 332 329 329 328 329 330 330 329 327 328 328 326 323 319 312 314 324 327 325 326 327 327 327 326 326 326 325 325 324 322 320 319 320 321 322 323 321 320 322 323 323 323 324
370 371 369 361 358 361 361 360 359 359 359 359 358 358 358 357 357 357 356 355 354 353 352 352 351 350 349 348 347 345 346 349 349 348 348 347 347 347 345 344 345 340 332 330 328 327 329 329 329 329 328 329 329 326 327 327 315 312 322 327 324 325 327 327 327 327 326 326 325 324 323 321 320 320 321 321 321 321 320 320 322 322 323 323 324
366 366 364 361 360 361 360 359 359 359 359 358 358 358 357 357 357 356 356 356 354 352 353 352 352 351 349 348 347 346 346 348 348 347 346 346 347 347 346 345 344 339 332 331 329 326 328 328 328 329 329 329 330 327 329 328 317 311 320 326 324 324 325 327 327 327 326 326 325 324 322 321 321 321 321 321 321 320 321 322 322 323 323 324 324
358 359 362 362 361 361 360 359 359 358 358 358 358 358 358 358 357 356 357 356 353 352 352 352 352 352 350 349 348 347 347 347 347 347 346 346 346 346 346 345 345 341 334 330 328 327 328 328 328 329 328 329 330 329 329 327 317 310 315 322 323 323 323 326 327 327 326 326 325 324 322 321 322 321 321 322 321 320 321 322 322 323 324 324 325
354 358 362 362 360 361 359 358 358 358 358 358 358 358 358 357 357 357 356 354 353 352 352 352 353 352 351 350 349 349 348 348 347 347 346 346 345 345 345 343 343 342 335 328 327 327 327 327 327 326 327 328 330 330 328 324 317 312 313 319 322 321 322 325 327 327 326 326 326 324 323 322 322 322 322 322 321 321 322 322 322 323 323 324 325
354 357 360 360 360 358 357 358 358 357 358 358 357 357 358 358 357 356 355 353 353 353 353 352 353 352 352 352 350 350 350 348 347 347 346 346 344 344 344 341 339 338 334 329 328 328 326 325 325 325 327 329 330 330 327 322 319 316 314 315 317 318 322 326 328 327 326 325 325 324 323 322 323 323 322 322 321 321 322 322 322 323 323 324 324
351 354 356 358 358 357 356 356 356 356 357 357 356 357 358 358 356 355 355 354 353 354 354 353 352 353 353 353 351 350 350 348 347 346 345 345 344 344 344 341 335 334 333 331 330 329 327 326 326 325 328 330 330 330 327 323 321 319 316 314 314 316 322 327 328 326 325 324 323 323 323 323 323 323 323 322 321 321 322 322 323 323 323 324 324
349 354 356 357 357 355 355 355 354 355 356 356 356 357 357 357 357 356 356 355 355 355 354 353 352 353 353 353 352 351 350 349 347 346 345 344 345 343 343 341 336 333 333 333 331 330 329 330 329 328 329 331 330 330 328 325 323 321 319 316 315 316 322 325 325 324 323 322 322 322 322 323 324 324 323 322 321 321 322 322 323 323 323 324 324
353 357 357 356 355 354 354 355 355 355 356 356 356 356 357 357 357 356 357 356 355 354 353 352 352 351 352 353 352 351 351 349 347 346 344 343 343 342 342 342 338 333 332 332 330 330 330 331 331 331 331 332 331 330 329 327 325 323 321 320 318 317 320 324 324 322 321 321 321 322 323 323 324 324 324 323 322 321 321 322 323 323 323 323 324
354 355 355 354 353 353 353 355 356 356 356 356 356 356 356 356 356 356 356 355 354 353 353 352 351 351 351 352 352 351 351 349 347 346 343 342 342 341 340 340 338 334 332 331 330 330 330 331 332 331 332 332 332 331 330 329 327 325 322 322 322 319 319 323 324 322 321 321 321 322 323 323 323 324 324 324 324 322 321 322 322 323 323 322 323
351 351 352 352 352 353 355 355 356 356 356 356 355 356 356 355 354 355 354 354 354 353 352 352 351 351 351 351 351 351 350 348 347 346 344 342 341 339 338 338 337 334 331 329 328 328 329 330 331 332 333 334 334 333 331 330 329 326 323 323 323 322 321 323 323 322 321 322 322 323 323 323 324 324 324 324 325 323 322 321 321 322 322 322 322
349 349 350 351 352 354 355 355 356 356 356 356 355 354 355 354 354 353 353 354 353 352 352 351 350 351 351 351 351 351 350 348 346 344 343 340 339 338 337 336 334 330 329 329 329 329 329 330 332 333 333 335 335 334 333 331 329 327 325 324 325 324 322 324 326 325 323 323 324 324 324 324 325 325 325 325 325 323 322 321 321 321 322 322 322
349 349 350 350 351 353 353 354 355 355 355 356 355 354 354 354 353 353 353 353 353 352 352 351 349 350 350 350 350 350 350 349 346 344 341 339 337 336 335 333 331 329 331 333 332 332 333 333 334 334 334 335 336 334 333 333 330 327 326 325 326 325 323 324 326 326 324 324 325 325 324 325 325 326 325 326 326 324 322 322 321 320 321 321 321
349 348 348 349 350 351 352 352 353 353 353 354 354 354 354 353 353 353 353 353 353 353 352 351 349 349 349 349 350 350 350 350 348 344 341 339 337 336 334 334 333 332 333 335 335 335 337 336 335 335 335 336 336 335 334 333 330 327 325 323 324 325 322 321 323 324 323 323 324 324 324 324 325 325 326 327 326 324 322 322 321 319 320 320 321
349 348 347 348 349 349 350 351 351 352 353 353 354 354 354 353 354 353 353 353 353 352 352 352 351 350 349 349 350 350 350 350 349 346 344 342 341 339 337 336 336 336 335 335 336 337 336 331 329 333 336 337 336 335 335 334 331 328 324 319 319 321 318 318 321 322 322 322 323 323 323 324 325 325 325 326 326 324 322 321 321 320 319 319 319
348 347 347 348 349 349 349 350 350 351 351 352 353 353 354 354 353 353 353 353 352 352 352 352 352 351 350 350 350 350 350 350 349 348 348 346 343 342 340 339 338 336 333 331 331 331 327 322 322 327 334 338 338 336 335 334 332 328 321 315 314 315 315 316 320 322 322 322 323 323 323 324 325 325 324 324 325 323 321 321 321 320 319 318 318
347 347 347 347 348 348 348 349 351 351 351 352 352 352 353 353 353 353 353 353 352 352 352 352 352 351 350 350 350 350 350 349 349 349 347 344 340 339 340 340 338 335 331 330 329 327 324 321 320 322 326 330 331 333 335 334 331 326 318 312 310 311 312 315 319 322 322 322 321 322 323 324 325 325 323 323 323 323 322 321 321 320 319 319 318
346 346 347 347 348 348 348 349 350 350 350 351 351 351 352 353 353 353 352 352 351 351 351 352 351 350 349 350 349 348 349 349 348 347 345 342 340 339 338 337 336 334 333 333 332 330 327 325 323 322 321 319 320 328 333 332 327 322 316 310 309 311 313 315 319 321 321 320 320 321 323 324 324 324 323 322 322 323 323 321 321 320 320 319 318
Wind_Speed
5 6 6 5 6 6 9 9 8 6 4 4 3 3 4 5 6 6 5 5 5 5 5 4 5 5 4 5 7 8 9 8 6 5 5 8 9 8 8 8 9 7 6 7 8 9 10 11 13 16 15 11 13 16 18 18 14 13 13 13 15 15 17 15 8 6 7 4 2 2 1 1 1 2 2 2 2 2 4 4 3 3 6 6 6
2 3 2 0 2 5 8 7 5 4 3 3 3 3 3 2 3 4 4 4 4 5 5 5 5 5 5 6 8 9 7 7 6 5 6 8 9 9 8 8 7 7 7 8 9 10 11 12 12 15 14 10 11 15 18 18 15 15 14 13 15 15 16 18 13 6 5 3 1 1 2 2 2 3 4 4 3 3 4 6 4 3 4 6 7
1 1 2 2 4 4 5 4 3 3 4 4 4 3 2 2 2 3 4 4 4 5 5 4 4 5 5 7 8 8 6 5 5 6 8 9 9 9 7 7 6 7 8 8 9 10 10 12 12 13 12 10 10 15 19 19 16 18 19 17 17 16 16 19 19 14 9 4 1 2 2 2 3 3 4 5 5 4 4 6 6 5 5 7 8
3 1 2 3 3 3 3 2 1 3 5 4 3 3 2 2 3 3 5 6 5 5 6 5 4 4 4 6 6 6 6 5 5 8 10 10 9 8 7 6 6 7 7 7 8 10 10 12 12 13 13 11 11 16 20 20 17 17 20 21 20 18 17 19 20 20 20 13 3 1 1 2 2 4 4 4 6 5 5 5 6 5 5 7 7
4 3 2 3 5 4 3 3 3 4 5 4 3 3 2 3 4 5 6 6 6 5 5 4 3 3 2 4 4 5 6 6 8 11 11 9 8 7 7 5 5 6 7 8 10 10 10 11 12 14 14 11 12 17 19 20 20 17 17 21 22 20 18 19 19 19 22 20 11 2 1 2 2 3 3 2 4 5 5 6 6 6 7 7 7
3 3 2 2 3 3 3 3 3 3 4 4 3 2 2 4 5 5 6 5 5 4 4 4 3 2 1 2 4 5 6 7 10 12 10 9 8 8 7 5 5 6 8 10 11 11 10 10 10 12 14 13 12 15 17 18 20 18 15 18 21 20 19 20 21 20 20 23 21 11 4 2 4 3 1 1 3 3 5 7 8 8 8 7 8
2 1 2 3 4 4 4 3 3 2 2 2 3 3 3 4 5 5 4 4 3 3 4 4 4 3 1 1 2 4 6 9 10 11 10 8 8 8 7 5 5 6 9 10 10 10 9 9 8 9 13 15 13 14 16 16 17 18 15 15 19 20 21 19 19 21 19 22 24 20 16 10 4 4 1 1 3 3 2 5 7 10 11 11 10
3 2 1 2 4 5 5 4 3 2 2 2 3 4 5 4 4 3 3 3 2 2 3 4 4 4 2 1 3 5 7 9 10 9 9 7 7 8 7 5 5 8 10 9 8 8 8 9 8 10 14 15 14 14 15 14 14 17 17 16 17 19 21 18 17 21 19 19 24 23 22 19 12 10 7 5 2 1 5 6 9 12 8 12 13
3 4 2 3 5 6 5 4 4 4 4 3 2 3 4 3 3 3 4 4 3 2 3 4 4 4 3 3 6 7 8 10 9 8 8 7 7 8 6 5 6 8 8 8 7 7 8 9 10 12 14 15 14 12 13 14 13 15 17 17 16 17 19 19 18 21 19 19 23 22 20 19 18 18 17 12 7 4 3 4 7 15 12 6 10
3 4 3 5 5 5 5 4 5 6 6 5 3 2 3 3 4 5 6 6 6 5 5 5 5 5 4 5 7 9 10 10 9 9 7 5 6 6 5 5 6 7 7 6 5 5 6 8 10 12 12 13 13 12 12 13 12 13 16 17 17 15 16 18 19 20 20 20 22 22 20 16 13 14 14 13 9 5 2 3 5 8 10 9 4
4 3 2 4 3 5 7 7 5 6 6 6 5 4 5 5 5 5 4 5 5 6 5 5 6 6 6 6 7 9 9 8 9 9 7 5 6 5 4 5 5 5 5 3 3 3 5 7 9 10 10 11 13 14 12 12 11 11 14 17 17 14 13 16 17 19 20 20 22 23 20 13 8 7 9 11 8 4 3 3 5 6 6 9 9
4 3 2 2 2 4 9 9 6 6 6 7 6 6 6 6 6 5 4 4 4 4 4 4 5 7 7 6 7 7 7 8 10 8 7 6 5 4 4 5 5 5 3 2 3 3 5 7 8 8 9 11 13 13 12 12 11 11 14 17 16 13 13 14 16 18 19 19 20 22 20 15 11 9 10 12 9 5 4 3 5 5 4 6 10
4 3 3 3 2 4 8 9 7 7 7 7 7 7 7 6 6 6 6 5 5 5 4 3 5 5 5 5 6 7 8 9 9 7 7 6 6 6 6 6 6 6 4 4 5 2 3 5 8 8 8 10 11 11 11 11 11 13 15 16 14 13 15 14 13 16 17 17 17 18 19 17 15 14 14 15 13 9 7 4 3 3 3 4 8
4 4 4 3 3 4 5 7 8 7 8 9 8 7 7 6 6 6 6 6 6 5 4 4 4 4 3 1 2 6 9 9 7 7 7 7 6 6 5 6 6 5 4 5 6 3 1 4 6 8 9 10 10 11 12 11 11 14 16 15 13 13 15 15 13 14 15 16 15 16 17 17 17 18 19 19 18 15 11 5 3 3 3 4 6
4 4 4 4 6 6 5 8 10 9 10 11 9 8 8 7 7 6 6 7 6 5 7 9 8 3 4 5 4 5 7 8 7 7 7 7 7 6 6 7 7 5 3 4 7 7 2 4 4 6 9 9 10 10 12 12 12 15 15 14 13 12 13 14 13 13 14 15 15 15 16 18 18 19 20 20 20 19 15 8 4 1 3 4 4
4 4 4 5 7 5 6 11 12 12 13 11 10 10 9 8 7 6 6 7 7 8 8 7 6 8 10 10 9 6 5 6 6 6 6 7 7 7 7 7 8 8 9 7 6 7 3 6 6 9 10 10 10 11 12 13 13 14 14 13 13 12 12 14 14 13 14 15 16 16 17 20 19 19 20 22 22 22 20 13 4 1 2 3 3
5 5 5 6 7 5 8 14 15 14 14 13 12 12 10 9 8 7 7 7 8 7 9 10 10 8 7 9 8 6 5 6 6 6 7 9 7 7 8 8 8 11 12 11 8 7 7 11 12 12 11 11 11 12 13 14 13 14 15 14 13 11 11 14 15 15 14 15 17 18 19 20 20 21 22 23 22 23 23 21 15 9 5 0 1
6 6 6 6 7 6 8 14 17 17 16 14 14 12 11 10 10 9 9 8 7 7 7 6 5 4 5 6 6 7 8 7 7 8 8 8 7 7 8 7 8 10 11 10 9 11 13 14 14 13 12 11 12 11 12 12 13 14 15 15 15 13 14 16 16 15 14 14 17 18 19 19 19 20 22 22 22 22 22 22 21 18 14 6 3
5 6 5 5 7 8 7 14 18 18 17 16 14 13 12 12 11 10 9 9 8 7 6 4 3 2 5 5 6 7 7 6 7 8 8 8 7 8 8 8 9 9 8 8 9 13 16 14 13 12 11 11 11 11 10 11 12 12 14 15 15 15 16 16 15 16 14 13 15 17 19 19 18 19 21 22 21 21 20 20 20 20 19 14 8
6 6 5 5 8 9 9 15 19 19 18 16 15 14 13 13 12 10 9 10 9 7 6 6 5 3 5 7 6 6 5 5 6 7 9 9 8 8 8 10 10 8 10 12 13 15 14 12 12 11 10 10 10 10 10 10 12 12 12 14 15 15 16 16 15 15 14 13 14 16 18 18 17 18 19 20 20 19 19 18 18 18 19 17 14
5 5 4 5 7 8 10 15 17 18 18 16 16 17 15 13 11 10 11 12 10 8 7 7 6 5 5 7 8 8 7 7 7 7 9 10 9 10 10 10 10 11 15 15 14 14 13 12 13 11 10 10 10 10 9 10 12 13 12 13 14 15 15 14 15 15 14 13 14 15 17 17 16 17 18 18 19 19 19 19 18 17 18 18 16
4 4 3 4 6 7 11 14 15 17 17 16 17 17 15 13 11 10 11 12 11 10 8 7 7 7 6 8 10 10 8 7 8 9 9 9 11 12 11 10 11 13 15 15 15 16 15 14 13 11 11 11 10 9 9 9 12 14 13 13 14 14 14 13 14 14 14 13 13 14 15 15 15 16 17 18 19 20 20 20 19 17 17 17 16
5 5 4 4 6 9 13 14 15 17 17 16 16 15 14 14 13 12 12 11 11 10 9 8 9 9 8 8 10 9 8 8 10 10 10 10 12 12 12 13 14 14 13 14 16 17 15 13 12 11 11 11 10 7 7 8 10 12 12 12 13 13 12 12 12 12 12 12 13 14 14 13 14 15 17 18 18 19 19 18 17 16 15 14 13
5 5 3 5 7 8 11 13 14 16 17 16 14 13 14 15 14 14 12 11 11 11 10 10 10 10 9 9 9 9 9 10 10 11 12 11 12 13 14 14 14 14 14 15 15 15 14 12 12 12 11 11 9 6 5 7 9 10 9 9 11 11 10 10 12 12 12 12 14 14 13 14 15 17 18 18 18 18 17 15 14 13 12 11 10
5 5 4 5 6 5 5 8 10 13 15 15 12 12 15 16 15 14 13 12 11 10 11 10 9 9 8 9 10 9 9 11 10 11 12 12 13 14 14 13 12 13 15 16 15 14 13 13 13 13 12 12 9 7 7 9 9 8 7 6 6 8 10 10 11 11 11 12 13 12 13 15 17 18 18 18 18 17 17 15 14 12 10 9 8
5 5 4 4 2 3 4 4 6 10 13 13 12 12 14 15 14 14 13 11 11 10 9 9 9 9 8 9 10 9 9 10 10 12 12 12 13 15 14 13 12 14 16 17 16 14 14 14 14 13 14 13 10 9 9 10 9 7 6 6 5 7 9 9 9 9 10 11 12 11 12 15 17 16 16 15 15 16 16 15 15 13 11 10 9
5 5 4 4 2 3 4 5 6 10 13 14 16 15 15 15 14 13 11 10 10 10 9 8 8 8 8 10 10 9 10 10 12 14 13 11 12 13 13 12 13 15 17 16 16 15 14 13 13 15 18 16 12 10 10 10 8 7 8 7 6 7 8 8 8 9 11 11 11 11 12 13 14 13 13 14 14 14 14 14 15 14 12 12 10
5 5 5 4 4 3 4 6 8 10 12 14 16 17 16 16 14 13 11 10 10 9 8 8 8 8 9 10 10 10 10 10 12 12 11 11 12 12 11 11 13 16 16 15 15 14 13 12 13 16 19 19 15 11 10 8 6 7 10 7 7 7 8 8 8 9 10 10 11 12 12 11 11 12 12 14 14 14 14 13 13 12 10 11 10
6 5 4 5 5 4 4 7 9 11 13 15 16 16 15 14 13 12 10 9 8 8 7 8 8 9 9 8 9 10 10 10 11 11 11 12 12 12 11 11 14 16 15 14 13 11 11 12 13 14 16 18 17 13 9 7 5 6 10 7 7 7 7 7 7 8 9 9 9 10 9 9 10 12 14 14 14 13 12 10 10 10 9 9 8
6 5 5 4 4 3 4 6 10 13 15 16 16 15 13 11 11 10 8 7 7 7 7 8 8 8 9 8 9 9 10 11 11 11 11 12 13 13 13 13 15 16 15 13 12 11 11 11 11 12 13 16 17 14 8 5 4 5 9 7 6 7 6 6 6 8 9 8 7 7 8 9 11 14 15 14 13 12 11 8 8 9 8 7 7
6 5 4 3 3 4 5 7 9 12 14 15 15 13 11 9 8 8 6 6 6 6 6 7 7 7 8 8 8 9 10 11 11 10 11 12 13 14 14 14 16 16 15 14 13 12 10 9 9 9 11 14 15 13 8 4 1 4 10 7 5 7 5 5 6 8 8 6 6 7 8 10 13 15 15 14 12 11 11 10 10 8 7 7 7
6 6 6 6 5 5 7 9 10 11 13 14 13 12 10 9 8 7 6 6 5 5 6 6 6 6 6 6 7 9 10 10 10 11 11 13 13 14 13 14 15 16 16 14 12 11 10 9 8 8 10 12 12 12 9 4 1 3 8 7 3 6 5 4 5 7 7 5 5 6 7 10 13 14 13 13 11 9 9 11 11 9 9 10 8
6 6 7 7 7 8 9 10 10 12 14 13 11 10 9 8 8 7 6 5 5 6 7 6 5 5 5 5 6 9 10 10 10 11 12 13 13 13 13 12 13 13 14 13 12 10 10 9 8 7 8 10 10 11 12 9 3 3 6 6 4 5 4 3 4 6 6 5 5 6 7 10 12 12 12 13 11 9 9 10 9 8 10 11 9
6 7 7 7 8 10 12 12 12 13 13 11 10 9 8 7 7 7 6 5 6 8 7 5 4 3 3 3 4 7 10 10 11 12 12 12 12 12 12 11 9 10 13 13 11 10 9 9 7 6 6 7 8 9 13 13 8 3 3 6 7 6 4 3 4 5 5 5 6 7 8 11 11 11 12 13 11 10 10 10 9 8 9 10 9
7 7 7 8 10 12 12 12 13 13 12 11 11 10 9 7 6 6 6 6 7 8 6 4 4 3 3 3 4 7 9 10 10 11 11 11 11 12 12 9 7 10 14 12 9 9 10 9 7 5 5 5 6 8 10 14 12 4 1 4 7 7 4 4 4 4 5 5 6 8 9 11 11 10 11 12 12 11 11 12 12 11 11 12 11
8 9 9 11 14 14 12 11 12 12 12 13 12 10 9 8 6 6 7 6 6 6 4 2 2 3 3 5 6 7 9 10 10 10 10 10 11 12 12 10 9 11 13 11 8 9 9 8 7 5 4 4 4 6 7 11 12 6 1 2 5 7 7 5 4 3 4 5 7 9 10 10 10 10 10 11 13 12 12 13 14 14 14 14 12
10 12 14 16 16 15 14 13 13 13 12 12 12 9 9 9 8 8 9 7 5 3 2 2 2 2 4 6 7 8 9 10 10 9 9 9 10 11 11 10 8 10 12 11 9 9 8 8 8 6 4 2 2 3 5 9 11 7 2 1 3 6 8 7 5 4 4 6 6 8 10 10 10 10 10 11 12 12 12 14 15 15 16 16 13
13 16 16 17 16 15 15 14 13 12 11 11 11 9 10 11 9 8 8 7 5 2 3 4 4 4 5 7 8 9 9 9 9 8 8 9 9 10 10 8 7 10 13 13 10 8 7 6 6 5 3 0 1 0 3 7 9 7 4 3 4 5 8 8 5 5 5 5 5 6 9 10 10 10 10 10 11 11 12 13 15 16 16 16 15
16 18 18 17 17 16 14 14 13 12 11 10 10 10 11 12 9 6 4 5 5 5 5 5 6 6 7 8 8 9 9 9 9 8 8 8 9 9 9 8 8 12 14 13 9 7 6 5 4 3 3 3 4 2 2 5 8 8 7 6 5 6 8 9 6 7 4 3 3 5 7 9 9 9 10 10 10 9 10 12 13 15 16 16 15
13 17 19 18 17 16 14 14 14 13 12 11 10 11 12 10 6 4 3 3 5 7 7 6 6 5 6 7 8 9 9 9 9 8 8 8 9 9 10 11 11 13 13 11 8 5 4 4 4 4 4 6 7 4 2 4 6 8 9 9 7 7 9 9 7 6 2 2 3 4 6 8 8 8 8 10 9 8 9 10 12 13 14 14 13
13 16 18 18 17 16 15 14 13 12 12 12 12 12 12 10 7 6 5 4 5 8 7 6 7 6 6 7 7 8 8 9 8 8 9 9 10 10 11 11 12 12 11 9 8 6 6 7 6 5 6 8 8 5 2 3 5 7 9 11 8 6 7 8 7 4 2 2 3 4 5 6 7 6 7 8 8 7 7 9 9 10 11 11 11
14 16 19 19 17 17 17 15 13 13 12 12 13 13 13 11 9 7 7 6 6 7 8 7 7 7 7 8 8 8 9 9 9 10 11 11 11 10 9 9 11 11 10 9 9 8 9 9 8 7 8 9 9 7 4 1 3 5 7 10 9 6 3 4 4 2 3 3 4 4 4 4 5 5 5 5 6 6 6 7 7 7 8 8 8
16 17 19 20 17 16 17 16 14 13 12 12 13 14 13 11 9 7 8 8 8 8 8 8 8 7 8 9 10 10 10 10 11 12 12 12 10 9 9 10 11 11 10 9 9 9 9 10 10 10 10 10 11 9 6 3 1 3 4 7 8 6 2 1 1 3 3 3 4 4 3 4 5 4 5 5 5 5 5 5 6 6 7 7 7
17 16 17 19 18 17 18 17 14 13 12 12 13 14 12 11 9 8 8 9 9 9 9 8 8 8 9 9 9 10 10 11 12 13 12 12 11 10 10 10 10 10 10 10 10 9 10 11 12 13 12 12 12 12 8 5 3 0 2 3 5 5 2 1 1 2 2 3 4 5 5 6 7 6 6 6 5 4 3 5 6 6 6 7 7
19 18 18 20 20 20 19 17 14 12 12 11 12 12 12 10 8 8 9 10 10 10 9 9 8 9 9 8 8 9 11 12 14 14 13 13 12 12 11 10 10 10 10 10 10 11 12 13 14 15 14 13 14 13 11 8 5 3 1 1 2 2 1 1 1 4 4 5 6 7 8 9 9 8 7 6 4 3 2 4 5 5 5 6 6
20 20 20 21 21 21 19 17 14 12 12 11 9 9 9 8 7 7 8 9 10 10 9 8 7 8 9 8 7 9 11 13 13 13 12 12 11 11 11 10 10 11 11 12 12 12 13 15 16 18 17 16 15 15 13 10 7 6 4 3 2 2 1 2 5 6 6 7 8 9 9 10 9 9 8 6 4 2 1 3 4 5 5 5 5
19 21 22 22 21 19 18 16 14 13 12 11 9 8 7 6 7 7 7 8 9 9 9 8 7 8 9 9 8 8 10 12 12 12 11 11 11 11 11 11 11 11 12 14 15 15 15 15 16 17 17 17 16 16 14 12 10 8 7 5 5 5 5 5 5 6 6 7 8 9 10 10 10 9 8 5 4 3 1 1 3 4 4 4 4
20 22 22 21 21 19 18 16 14 12 12 11 9 8 7 6 7 6 6 6 7 9 9 9 8 7 9 10 10 10 10 10 11 12 12 13 13 13 13 13 11 9 10 12 13 13 13 11 10 10 10 13 16 16 15 13 11 10 8 6 6 7 6 5 5 5 5 7 8 9 10 10 8 5 3 3 5 5 2 1 2 3 4 4 4
20 20 20 20 20 18 17 15 13 11 11 10 9 7 6 6 6 5 5 5 6 7 8 9 9 9 9 10 10 11 12 11 11 12 13 13 14 15 16 16 13 9 8 8 7 7 8 7 5 4 6 10 14 15 15 13 11 10 8 7 6 6 6 5 5 5 6 7 8 10 10 9 5 2 2 3 6 7 5 3 2 3 3 4 4
20 19 18 18 17 16 14 13 12 11 11 10 9 8 6 5 5 4 4 4 4 5 7 9 9 9 9 8 8 10 12 12 12 14 13 11 11 12 14 16 13 9 8 7 5 5 5 3 2 2 4 8 10 12 13 13 12 11 9 7 7 6 6 7 7 7 7 8 10 10 10 8 3 5 4 2 3 6 7 5 1 2 2 3 4
19 18 17 16 15 14 13 12 10 10 11 10 9 8 7 6 5 5 4 4 4 4 4 7 7 6 6 6 6 8 10 10 11 13 13 11 9 9 10 13 12 9 7 6 5 4 3 2 2 2 2 3 5 7 10 12 12 10 9 7 6 6 6 7 8 8 9 9 10 10 9 6 4 7 5 1 1 3 6 6 2 2 2 3 4
Wind_Direction
266 258 246 238 231 199 172 170 174 188 204 225 239 227 227 235 230 228 229 227 222 215 209 198 179 166 162 166 163 162 170 174 173 171 144 122 117 112 108 103 99 95 96 98 88 80 70 57 48 36 36 56 55 42 34 28 28 26 25 32 34 34 33 26 9 333 326 328 7 25 45 20 262 254 265 263 255 239 219 203 200 210 222 246 283
294 257 241 193 119 151 162 166 176 198 225 258 273 265 256 244 221 218 215 211 199 189 191 190 183 175 162 161 167 171 176 182 184 171 143 130 123 111 106 105 99 89 90 96 86 79 69 54 38 25 29 53 52 40 32 28 36 38 32 38 41 39 37 35 32 7 318 304 339 1 342 329 291 252 241 233 231 242 224 208 209 215 230 258 273
194 225 211 138 110 143 170 167 173 218 250 263 269 266 247 202 201 204 188 176 159 152 152 149 159 169 166 169 177 182 182 183 180 156 137 129 123 114 107 105 98 87 87 91 86 81 63 38 23 20 34 59 54 42 38 33 36 43 41 40 40 41 41 40 42 42 26 358 339 22 0 339 329 294 253 233 226 229 223 223 230 230 246 264 272
191 202 239 226 206 213 211 192 215 241 245 249 253 252 225 180 174 168 162 152 138 127 124 124 136 145 149 167 184 185 172 160 145 142 137 128 123 117 113 105 94 85 81 87 89 76 52 35 36 42 50 65 59 47 44 39 35 39 42 42 39 34 33 37 44 47 40 34 33 320 11 56 355 301 293 257 228 225 232 237 237 242 261 265 273
190 190 215 242 244 254 272 278 275 257 250 257 254 244 212 175 168 162 160 154 146 136 129 133 145 149 148 164 173 160 151 146 139 141 141 136 130 122 114 98 84 85 81 85 81 63 48 46 50 52 55 67 64 54 49 42 36 34 39 43 41 33 28 32 37 41 40 39 41 30 354 23 287 278 324 301 244 234 237 242 243 261 280 274 273
178 181 172 181 223 243 256 262 269 266 270 280 267 228 180 174 181 179 179 178 176 166 157 164 170 176 188 180 167 150 142 143 143 144 144 141 133 120 106 86 76 89 94 88 71 58 58 53 41 44 58 71 69 58 51 45 40 35 37 44 42 36 33 33 30 30 36 36 36 39 39 337 277 290 32 358 311 275 239 247 256 268 276 276 273
115 110 122 146 173 192 209 236 264 269 265 269 249 220 197 192 195 194 203 212 213 207 197 191 188 180 184 197 167 147 138 139 141 143 141 137 132 122 109 93 80 96 103 87 67 68 71 51 32 45 67 72 68 61 53 47 44 38 37 43 41 36 35 35 29 27 30 28 29 37 44 40 3 341 34 85 352 347 326 289 289 290 269 261 268
126 126 97 165 173 179 197 217 229 215 201 226 226 210 207 208 206 203 202 205 215 222 203 193 188 179 180 171 138 132 134 137 138 142 141 132 125 121 120 111 94 106 102 77 71 87 72 50 50 67 74 69 63 62 55 49 49 42 36 37 38 35 33 34 34 30 26 23 25 34 41 46 48 40 49 76 84 23 0 348 348 351 308 255 256
129 137 167 207 182 171 189 201 187 177 189 217 223 208 214 215 200 170 144 129 119 132 153 165 168 160 151 139 133 131 135 138 139 144 143 132 125 123 125 120 105 110 98 73 86 92 63 56 70 74 71 61 54 60 58 53 54 47 39 33 31 32 31 34 38 35 35 31 26 28 32 38 47 48 51 59 69 73 10 325 346 12 14 306 255
127 139 185 220 201 168 179 191 173 166 181 196 188 169 184 170 146 135 124 111 109 114 118 132 141 137 130 126 133 136 139 142 145 149 149 144 140 137 134 127 113 109 97 82 102 93 56 59 74 75 69 60 59 67 64 57 58 53 44 34 26 26 29 34 41 44 45 42 34 31 30 30 35 38 43 48 52 61 31 322 330 3 19 8 317
140 135 173 223 219 175 182 186 163 148 159 166 159 148 143 140 134 125 118 110 108 112 117 130 134 131 124 120 135 144 146 151 156 159 163 167 159 150 151 147 135 126 112 98 119 101 60 61 77 80 75 72 72 72 66 57 60 59 46 33 25 24 28 32 42 46 43 42 41 40 40 42 46 37 34 41 47 49 22 338 336 358 21 22 17
148 141 148 172 160 162 177 181 162 148 153 153 158 165 155 150 149 143 134 124 121 125 124 122 131 139 137 132 140 150 158 164 167 172 177 180 181 179 175 170 174 175 165 179 173 113 64 67 83 85 81 81 76 69 63 56 59 61 45 33 27 30 33 33 42 45 39 39 42 43 47 53 55 44 29 31 40 51 41 347 329 7 30 25 28
160 166 168 173 170 162 169 175 169 159 157 153 162 173 168 161 158 153 149 147 144 140 140 148 152 149 139 134 147 158 169 172 173 181 187 190 195 193 187 182 187 194 191 182 177 146 62 77 86 84 85 84 74 63 57 55 59 56 45 37 36 38 38 35 42 46 39 35 37 40 44 45 40 30 20 21 21 15 21 9 344 25 37 15 24
169 177 178 189 206 199 183 184 181 169 161 160 165 171 169 166 162 155 151 155 159 149 131 104 75 59 52 63 156 166 174 182 186 188 195 206 208 199 195 190 193 204 207 191 190 196 97 84 83 84 89 85 73 59 52 56 59 54 48 45 43 41 39 38 44 49 38 30 32 35 36 34 26 16 14 21 19 8 2 346 329 18 18 6 26
170 181 189 205 210 211 200 192 187 174 166 166 171 173 168 172 176 170 157 154 151 117 84 61 53 76 169 172 162 164 177 185 188 191 202 214 213 203 193 194 194 178 160 180 194 200 148 72 71 93 96 86 71 58 53 62 65 59 57 53 48 45 40 42 51 52 38 31 32 30 27 24 19 17 21 28 28 19 11 348 295 349 21 353 11
168 178 198 221 218 203 174 179 178 170 166 168 175 176 173 178 182 174 158 142 124 110 112 120 148 184 191 176 162 163 173 170 171 189 202 202 201 195 184 185 176 138 117 123 162 184 146 93 103 106 99 87 73 61 57 67 71 66 61 54 50 50 43 46 56 58 48 41 35 28 29 31 31 36 39 38 38 35 34 27 356 316 20 339 341
174 184 195 218 221 197 164 171 171 165 167 172 179 184 182 181 177 166 153 134 124 139 160 165 170 182 186 172 160 149 142 146 155 171 182 184 187 188 178 172 161 133 115 112 127 147 134 116 113 108 98 86 76 65 60 69 75 67 60 52 49 50 48 52 58 58 52 42 35 33 37 41 42 44 45 45 47 47 48 50 44 32 29 281 223
182 192 197 206 215 207 169 167 169 169 173 176 181 189 187 178 170 163 157 144 147 176 187 174 162 155 153 153 145 140 141 145 150 155 166 175 173 174 177 171 167 153 131 120 120 128 128 119 112 105 94 81 71 60 58 69 73 65 58 54 54 53 53 55 56 55 51 38 34 38 39 39 39 41 44 48 52 50 51 54 52 46 46 65 140
185 192 202 203 205 210 179 165 172 173 175 179 182 188 186 175 167 165 161 155 166 189 198 193 190 149 146 156 149 145 147 148 153 163 173 173 161 163 166 156 156 156 140 132 127 126 126 119 110 103 89 74 63 58 59 64 67 63 56 53 54 52 49 50 50 48 46 35 33 38 38 34 30 33 42 48 52 52 51 51 49 47 46 49 65
189 190 201 203 201 208 190 176 176 174 175 179 182 188 189 177 169 167 164 161 169 182 184 191 206 187 163 164 156 144 138 143 158 174 179 172 160 156 148 140 142 135 125 130 130 127 125 119 111 102 87 73 62 61 63 61 61 59 53 53 53 49 46 48 46 41 38 36 39 43 41 35 28 27 37 46 50 51 50 48 44 42 42 40 44
190 189 195 213 214 207 190 183 178 174 179 182 183 188 189 180 170 161 159 162 168 174 181 191 193 183 167 156 154 153 144 145 159 173 176 169 157 147 139 139 141 132 127 128 127 127 126 120 113 100 83 71 61 65 69 64 61 55 52 57 53 47 50 53 48 42 42 45 44 40 36 34 32 30 34 41 45 45 47 49 45 40 40 35 32
172 167 160 187 199 184 175 174 167 168 180 184 182 183 181 177 173 165 164 166 168 171 181 186 172 164 160 150 153 159 153 152 162 168 169 159 145 137 133 136 138 134 130 126 127 129 125 118 108 90 76 67 59 65 73 71 65 59 59 62 56 54 59 60 53 51 53 50 42 36 30 26 30 35 38 40 40 40 43 46 46 42 40 37 32
136 131 121 128 144 148 152 155 157 165 175 180 181 183 183 178 168 164 163 159 158 160 163 165 161 159 156 149 156 161 162 167 166 161 160 156 150 140 129 126 128 131 132 131 132 130 122 113 99 82 73 62 50 57 77 81 74 68 67 67 65 66 64 57 56 61 62 53 44 42 37 30 32 38 40 37 36 36 39 42 44 42 41 40 40
108 109 98 87 96 118 139 150 157 165 174 179 178 181 185 177 164 160 160 154 151 149 149 154 159 161 158 156 162 161 161 166 160 154 155 154 152 145 133 128 127 130 135 137 136 129 120 110 94 82 68 49 40 52 90 101 89 81 78 71 69 75 71 59 61 67 67 55 46 43 42 40 41 41 38 32 30 30 32 35 37 37 38 40 43
100 98 87 78 75 88 131 160 166 167 174 176 171 172 178 175 166 162 160 157 153 146 146 150 154 159 158 158 164 161 162 165 156 150 152 149 147 144 138 135 136 137 140 141 136 127 118 106 92 79 58 43 46 64 96 114 107 94 84 66 66 80 77 66 64 68 64 53 48 48 49 46 43 40 35 28 23 21 20 20 21 23 26 28 35
116 108 94 95 81 63 90 138 168 165 161 157 151 158 171 170 164 162 160 159 158 152 148 147 152 161 161 162 164 160 163 166 154 146 148 148 149 148 142 136 137 142 143 140 133 125 115 103 90 70 49 44 56 73 98 116 111 88 66 57 72 89 83 75 73 74 65 57 57 59 58 52 45 39 32 24 17 14 11 7 2 1 2 4 14
124 117 114 124 106 66 89 119 148 152 146 139 136 141 154 158 157 161 163 160 160 162 157 151 156 164 162 161 162 159 160 160 154 149 149 149 150 152 149 139 137 143 144 137 130 122 112 102 88 67 50 46 57 79 101 116 109 70 50 63 96 97 94 96 88 76 68 67 66 59 59 59 49 37 29 22 12 7 5 358 351 349 349 354 3
119 118 127 133 114 93 112 126 134 139 135 131 131 138 148 154 157 162 161 154 156 163 163 155 157 161 158 157 159 164 162 156 157 157 153 152 153 155 157 150 142 145 143 135 128 121 114 104 88 68 54 48 54 76 97 110 106 61 48 76 116 104 105 112 89 70 66 70 70 61 58 56 44 31 23 15 6 1 358 353 353 356 358 2 7
127 136 151 151 138 130 136 135 131 130 130 131 136 143 149 151 155 157 154 151 154 159 160 157 153 151 152 152 156 164 164 158 161 163 156 155 155 149 148 149 148 147 142 135 130 126 120 108 91 74 59 53 53 64 85 100 95 51 43 77 126 119 117 115 84 68 66 70 73 66 54 42 30 22 17 10 3 1 357 353 358 4 8 14 15
140 162 179 176 162 146 140 137 134 133 136 142 148 152 154 156 159 159 157 157 157 154 155 154 145 138 143 150 155 164 169 165 164 165 160 156 152 142 134 137 144 145 142 140 136 128 118 107 96 82 67 60 57 58 72 94 88 30 23 51 125 138 128 109 80 73 73 70 64 48 32 26 19 13 11 11 10 7 2 2 8 10 10 14 14
147 162 165 147 125 113 111 120 133 139 141 149 156 157 157 158 162 166 162 157 154 149 147 145 139 135 142 154 167 175 178 173 166 165 164 158 151 145 135 134 142 146 145 144 139 128 119 113 109 95 73 66 62 57 60 79 89 2 5 25 118 153 139 101 73 68 71 72 58 33 21 20 15 11 12 15 16 13 8 10 16 20 23 25 23
144 145 128 110 109 117 115 120 135 141 139 143 150 152 153 152 156 163 158 153 152 143 140 139 136 143 147 152 168 176 177 176 171 166 164 159 155 151 142 136 141 147 149 146 141 136 135 132 124 107 83 73 66 57 49 39 303 342 5 22 108 153 144 111 77 62 65 74 55 32 26 21 14 12 15 16 18 21 23 22 23 27 33 34 32
141 138 126 115 116 121 122 127 138 140 138 140 141 141 143 145 149 152 148 149 141 134 141 141 132 140 141 136 157 170 171 173 172 166 162 160 159 158 151 139 138 147 153 152 148 145 148 147 135 115 95 81 69 54 42 30 358 335 7 31 95 139 142 118 79 66 68 67 42 28 26 19 13 15 20 22 25 28 31 34 35 33 30 28 25
136 133 129 126 125 122 121 127 133 134 134 135 134 133 133 134 137 139 139 140 132 130 137 131 111 112 126 131 157 171 171 170 166 164 164 163 164 165 160 147 136 148 156 154 150 150 152 153 145 123 103 87 69 52 36 26 20 359 13 57 93 128 154 145 96 76 70 57 36 29 26 18 14 24 28 27 28 25 24 34 42 37 27 24 24
130 129 128 130 129 127 128 134 136 137 138 141 140 137 136 135 131 131 133 134 132 132 132 117 98 99 131 155 160 162 167 170 165 163 165 169 171 172 168 153 130 146 159 155 148 151 151 153 153 137 121 101 67 47 31 22 20 18 75 82 89 99 119 151 137 88 65 52 39 32 28 20 21 34 35 29 26 23 27 38 42 38 32 30 30
136 135 137 139 135 133 138 143 141 138 140 146 147 141 136 136 134 130 131 135 139 137 132 124 119 111 126 153 160 158 163 170 172 169 168 170 173 175 173 157 133 146 161 157 145 150 154 155 161 162 148 119 64 36 27 21 21 24 123 113 86 77 79 110 135 98 69 62 48 35 28 24 27 36 35 27 24 24 32 39 36 32 33 32 33
135 134 138 140 137 136 137 138 135 131 132 140 144 144 140 136 134 134 135 141 155 151 128 134 147 125 121 144 157 161 164 171 177 175 167 164 167 171 171 162 146 152 160 156 150 155 159 158 163 169 161 121 53 21 25 27 26 26 26 109 92 71 66 81 111 106 75 62 47 31 26 26 33 39 30 21 22 25 29 31 26 26 32 33 32
130 131 135 137 134 133 135 136 134 130 130 137 143 148 144 137 139 146 144 145 152 140 121 135 146 144 138 144 153 157 160 166 171 169 164 160 160 162 163 161 161 162 161 160 157 154 154 153 155 161 162 219 293 318 46 38 37 33 23 50 79 72 63 70 106 125 90 63 47 26 21 27 37 40 29 17 18 23 29 27 17 16 25 29 26
138 136 135 134 131 130 132 136 135 132 133 138 144 147 145 143 150 162 159 149 139 130 127 131 136 139 139 144 153 155 155 159 162 163 164 160 157 158 155 150 157 162 162 164 163 152 147 151 163 175 202 251 249 206 93 53 46 41 34 40 62 78 68 69 107 132 103 54 46 27 21 29 37 38 32 24 20 22 30 29 17 10 14 19 20
149 142 137 134 133 132 131 131 131 131 131 134 138 140 142 147 156 160 156 139 125 128 134 135 134 138 142 148 155 154 154 158 161 163 163 160 159 161 157 155 160 164 165 167 169 165 163 171 192 215 233 242 237 213 126 81 59 45 40 42 57 80 78 77 106 126 101 18 21 21 22 29 31 32 35 34 27 24 26 29 24 15 9 8 13
155 147 139 133 131 125 120 122 128 132 134 135 133 129 130 137 146 152 154 137 119 129 141 143 143 148 156 162 162 157 156 159 160 161 162 162 161 161 161 166 172 175 176 178 185 195 197 195 207 232 245 243 235 224 181 102 72 50 41 44 53 73 82 89 105 107 54 351 356 6 15 19 19 25 35 33 29 26 22 25 31 28 18 10 11
146 139 134 130 124 115 110 115 124 130 134 137 131 124 126 133 139 146 152 145 138 144 151 150 148 152 161 167 170 167 162 161 162 162 159 158 160 166 174 183 185 183 183 188 196 205 208 208 217 233 248 249 239 229 217 148 81 57 42 44 51 60 78 95 92 39 358 347 348 359 6 355 351 8 18 11 15 22 21 21 28 31 27 22 17
121 127 132 130 123 115 112 116 120 123 128 132 129 127 130 133 134 142 153 155 155 157 159 158 154 153 157 163 171 175 172 167 167 166 163 163 170 176 181 186 189 188 189 195 202 212 218 221 226 238 251 253 242 233 225 211 121 64 45 40 47 56 73 98 43 353 357 0 344 341 342 322 318 340 345 329 335 359 14 20 24 27 26 23 24
107 117 129 129 120 112 110 113 116 119 124 130 129 129 134 137 139 146 153 158 161 160 162 165 164 163 165 166 171 178 180 177 174 173 174 178 185 187 185 188 196 200 202 206 211 218 226 232 239 247 256 255 243 234 227 220 216 113 54 36 42 58 87 111 13 331 343 349 336 328 327 320 317 322 323 312 308 323 358 18 23 26 22 18 27
100 105 117 121 116 111 108 107 108 111 116 124 127 128 131 137 147 154 156 158 160 161 166 172 174 173 173 174 179 184 187 185 182 184 188 190 192 196 198 201 205 208 211 216 222 227 233 240 247 251 256 255 242 231 225 221 222 221 234 345 17 51 89 103 299 299 304 312 315 311 308 312 315 318 318 310 297 297 353 22 22 18 14 19 31
100 98 105 112 111 109 107 104 104 106 109 114 120 124 127 136 149 158 163 166 166 168 173 179 181 179 179 185 193 191 191 191 191 196 202 203 203 206 207 208 211 216 223 228 234 239 244 251 257 258 257 253 239 227 222 221 220 222 232 253 263 256 253 263 273 280 282 282 288 292 298 309 317 319 316 305 277 255 5 30 23 9 6 23 35
106 103 104 106 104 103 104 104 105 108 109 109 108 108 117 142 157 158 160 167 173 178 181 184 187 185 186 196 207 205 199 199 201 207 214 219 222 222 220 219 221 227 237 245 249 250 252 258 267 269 263 250 236 226 219 218 220 223 229 239 241 237 239 249 261 270 271 271 277 285 298 312 314 311 308 287 238 220 248 23 32 13 358 7 28
108 109 108 106 105 106 107 107 106 109 112 111 106 101 108 130 148 155 162 171 182 189 193 196 199 196 194 201 211 217 213 208 208 214 221 229 234 235 233 231 232 241 255 259 256 249 245 252 272 284 268 241 228 223 220 220 225 226 228 236 235 230 233 245 262 270 266 270 282 290 303 317 316 305 295 245 218 214 213 151 57 34 13 6 14
107 109 109 110 111 112 112 110 108 108 109 107 103 103 109 119 130 146 158 167 179 192 200 205 208 211 215 219 224 225 222 218 215 218 227 237 239 239 241 240 237 240 246 247 241 234 233 238 261 286 260 231 227 229 227 224 226 229 237 251 247 234 229 233 245 256 256 268 288 299 313 329 324 248 197 207 213 205 184 162 87 47 36 19 10
110 110 111 112 114 115 112 110 109 108 105 100 97 98 102 109 120 133 147 156 172 193 209 211 209 215 227 235 239 234 227 225 224 220 222 229 232 235 240 236 228 222 222 224 229 231 225 217 225 263 247 235 242 247 236 222 217 225 243 261 253 238 228 224 230 244 255 275 297 307 318 328 293 205 184 181 213 205 190 181 145 39 22 15 14
117 117 115 116 122 124 121 116 114 113 112 107 101 97 97 102 111 122 135 143 145 153 181 196 200 208 219 225 238 236 225 223 226 220 215 216 217 217 218 215 213 217 223 227 232 233 224 226 275 305 289 258 255 246 227 215 213 226 249 259 244 228 220 218 226 242 259 280 298 306 313 314 253 211 203 206 263 215 199 194 201 327 329 355 9